Back to catalog

GLOBAL-12

AliveCommunicationsVLEO
NORAD 49772·PAYLOAD·🇺🇸 United States

Launched Dec 2, 2021 from Cape Canaveral Space Force Station

Loading…

Next Passes (next 24 hours)

TLE

FreshSource: Space-Track

Epoch: Sep 14, 2026, 14:23 UTC

1 49772U 21115BA  26257.59996466  .00033033  00000-0  42287-3 0  9993
2 49772  53.1949 332.9315 0002788   2.4453 357.6573 15.58917181269820

Track GLOBAL-12 in real time with AllMySat

Download on the App Store